Location: Dillon
(41.1766°N, 107.0923°W)
Time: 12:50:50
(UTC+00:00)

RS-44 - Pass Details

Date: 03 July 2022
Orbit: 1175 x 1510 km, 82.5° (Epoch: 07 August)

Event Time Altitude Azimuth Distance (km) Brightness Sun altitude
Rises 03:23:27 0° 187° (S) 4,312 ? -6.8°
Reaches altitude 10° 03:26:08 10° 188° (S) 3,387 ? -7.1°
Maximum altitude 03:34:17 85° 277° (W) 1,431 ? -8.3°
Drops below altitude 10° 03:43:04 10° 7° (N) 3,630 ? -9.6°
Sets 03:46:01 0° 8° (N) 4,636 ? -10.0°
